| time (UTC) | temp F | wind direction | speed MPH | gust MPH | rain 1hr in | rain 24hr in | rain mn in | humidity % | barometer mb |
| 20260508094528 | 64 | 36 | 3.0 | 10.0 | 0.00 | 0.00 | 0.00 | 66 | 1013.8 |
| 20260508094027 | 64 | 45 | 3.0 | 9.0 | 0.00 | 0.00 | 0.00 | 69 | 1013.8 |
| 20260508093544 | 64 | 89 | 3.0 | 8.0 | 0.00 | 0.00 | 0.00 | 69 | 1013.8 |
| 20260508093037 | 63 | 74 | 4.0 | 9.0 | 0.00 | 0.00 | 0.00 | 68 | 1013.8 |
| 20260508092543 | 63 | 32 | 3.0 | 9.0 | 0.00 | 0.00 | 0.00 | 70 | 1013.8 |
| 20260508092039 | 63 | 70 | 3.0 | 8.0 | 0.00 | 0.00 | 0.00 | 72 | 1013.7 |
| 20260508091530 | 63 | 31 | 4.0 | 8.0 | 0.00 | 0.00 | 0.00 | 71 | 1013.7 |
| 20260508091027 | 62 | 82 | 3.0 | 8.0 | 0.00 | 0.00 | 0.00 | 73 | 1013.7 |
| 20260508090602 | 62 | 33 | 4.0 | 8.0 | 0.00 | 0.00 | 0.00 | 75 | 1013.7 |
| 20260508090031 | 61 | 42 | 2.0 | 7.0 | 0.00 | 0.00 | 0.00 | 76 | 1013.7 |
| 20260508085537 | 61 | 76 | 4.0 | 9.0 | 0.00 | 0.00 | 0.00 | 76 | 1013.8 |
| 20260508085039 | 61 | 40 | 5.0 | 9.0 | 0.00 | 0.00 | 0.00 | 76 | 1013.7 |
| 20260508084542 | 61 | 53 | 3.0 | 9.0 | 0.00 | 0.00 | 0.00 | 78 | 1013.8 |
| 20260508084042 | 61 | 55 | 3.0 | 8.0 | 0.00 | 0.00 | 0.00 | 78 | 1013.9 |
| 20260508083545 | 60 | 74 | 2.0 | 5.0 | 0.00 | 0.00 | 0.00 | 80 | 1013.9 |
| 20260508083031 | 61 | 29 | 3.0 | 6.0 | 0.00 | 0.00 | 0.00 | 79 | 1013.9 |
| 20260508082527 | 60 | 58 | 3.0 | 6.0 | 0.00 | 0.00 | 0.00 | 81 | 1013.9 |
| 20260508082031 | 60 | 82 | 1.0 | 5.0 | 0.00 | 0.00 | 0.00 | 82 | 1013.9 |
| 20260508081601 | 59 | 98 | 2.0 | 5.0 | 0.00 | 0.00 | 0.00 | 82 | 1013.8 |
| 20260508081045 | 59 | 59 | 2.0 | 6.0 | 0.00 | 0.00 | 0.00 | 82 | 1013.7 |
| 20260508080531 | 58 | 67 | 1.0 | 5.0 | 0.00 | 0.00 | 0.00 | 84 | 1013.7 |
| 20260508080044 | 58 | 38 | 2.0 | 5.0 | 0.00 | 0.00 | 0.00 | 83 | 1013.8 |
| 20260508075542 | 58 | 76 | 1.0 | 4.0 | 0.00 | 0.00 | 0.00 | 84 | 1013.8 |
| 20260508075043 | 58 | 42 | 2.0 | 4.0 | 0.00 | 0.00 | 0.00 | 83 | 1013.8 |
| 20260508074535 | 57 | 226 | 0.0 | 3.0 | 0.00 | 0.00 | 0.00 | 84 | 1013.9 |
| 20260508074034 | 58 | 75 | 1.0 | 3.0 | 0.00 | 0.00 | 0.00 | 82 | 1013.9 |
| 20260508073543 | 58 | 102 | 0.0 | 5.0 | 0.00 | 0.00 | 0.00 | 84 | 1013.9 |
| 20260508073027 | 58 | 105 | 3.0 | 5.0 | 0.00 | 0.00 | 0.00 | 83 | 1013.9 |
| 20260508072531 | 57 | 147 | 1.0 | 4.0 | 0.00 | 0.00 | 0.00 | 85 | 1013.9 |
| 20260508072037 | 56 | 63 | 2.0 | 4.0 | 0.00 | 0.00 | 0.00 | 85 | 1013.9 |
| 20260508071544 | 56 | 93 | 3.0 | 4.0 | 0.00 | 0.00 | 0.00 | 86 | 1013.9 |
| 20260508071103 | 56 | 99 | 3.0 | 4.0 | 0.00 | 0.00 | 0.00 | 87 | 1013.9 |
| 20260508070541 | 55 | 115 | 2.0 | 4.0 | 0.00 | 0.00 | 0.00 | 90 | 1013.9 |
| 20260508070037 | 54 | 131 | 2.0 | 4.0 | 0.00 | 0.00 | 0.00 | 92 | 1013.9 |
| 20260508065551 | 52 | 142 | 2.0 | 4.0 | 0.00 | 0.00 | 0.00 | 94 | 1014.0 |
| 20260508065030 | 51 | 55 | 0.0 | 2.0 | 0.00 | 0.00 | 0.00 | 94 | 1014.0 |
| 20260508064535 | 50 | 39 | 0.0 | 1.0 | 0.00 | 0.00 | 0.00 | 93 | 1013.9 |
| 20260508064034 | 50 | 32 | 0.0 | 2.0 | 0.00 | 0.00 | 0.00 | 94 | 1013.9 |
| 20260508063541 | 50 | 74 | 0.0 | 2.0 | 0.00 | 0.00 | 0.00 | 94 | 1013.9 |
| 20260508063042 | 49 | 69 | 0.0 | 2.0 | 0.00 | 0.00 | 0.00 | 94 | 1013.8 |
| 20260508062543 | 49 | 53 | 0.0 | 2.0 | 0.00 | 0.00 | 0.00 | 95 | 1013.8 |
| 20260508062043 | 48 | 63 | 0.0 | 2.0 | 0.00 | 0.00 | 0.00 | 96 | 1013.8 |
| 20260508061548 | 48 | 37 | 0.0 | 2.0 | 0.00 | 0.00 | 0.00 | 96 | 1013.8 |
| 20260508061045 | 48 | 55 | 0.0 | 2.0 | 0.00 | 0.00 | 0.00 | 96 | 1013.7 |
| 20260508060614 | 47 | 25 | 0.0 | 1.0 | 0.00 | 0.00 | 0.00 | 96 | 1013.7 |
| 20260508060029 | 47 | 56 | 0.0 | 1.0 | 0.00 | 0.00 | 0.00 | 96 | 1013.6 |
| 20260508055534 | 47 | 49 | 0.0 | 2.0 | 0.00 | 0.00 | 0.00 | 96 | 1013.6 |
| 20260508055034 | 46 | 48 | 0.0 | 2.0 | 0.00 | 0.00 | 0.00 | 96 | 1013.5 |
| 20260508054543 | 46 | 15 | 0.0 | 1.0 | 0.00 | 0.00 | 0.00 | 96 | 1013.5 |
| 20260508054026 | 46 | 10 | 0.0 | 1.0 | 0.00 | 0.00 | 0.00 | 96 | 1013.6 |
| 20260508053545 | 45 | 5 | 0.0 | 2.0 | 0.00 | 0.00 | 0.00 | 96 | 1013.5 |
| 20260508053040 | 45 | 350 | 0.0 | 2.0 | 0.00 | 0.00 | 0.00 | 96 | 1013.5 |
| 20260508052540 | 45 | 360 | 0.0 | 1.0 | 0.00 | 0.00 | 0.00 | 96 | 1013.5 |
| 20260508052044 | 45 | 355 | 0.0 | 1.0 | 0.00 | 0.00 | 0.00 | 96 | 1013.4 |
| 20260508051529 | 44 | 5 | 0.0 | 1.0 | 0.00 | 0.00 | 0.00 | 96 | 1013.3 |
| 20260508051102 | 44 | 5 | 0.0 | 1.0 | 0.00 | 0.00 | 0.00 | 96 | 1013.3 |
| 20260508050528 | 44 | 5 | 0.0 | 1.0 | 0.00 | 0.00 | 0.00 | 96 | 1013.3 |
| 20260508050042 | 44 | 9 | 0.0 | 1.0 | 0.00 | 0.00 | 0.00 | 96 | 1013.2 |
| 20260508045554 | 44 | 11 | 0.0 | 2.0 | 0.00 | 0.00 | 0.00 | 96 | 1013.1 |
| 20260508045107 | 44 | 12 | 1.0 | 2.0 | 0.00 | 0.00 | 0.00 | 96 | 1013.1 |
| 20260508044530 | 44 | 9 | 0.0 | 2.0 | 0.00 | 0.00 | 0.00 | 96 | 1013.1 |
| 20260508044036 | 44 | 5 | 0.0 | 1.0 | 0.00 | 0.00 | 0.00 | 96 | 1013.1 |
| 20260508043529 | 44 | 5 | 0.0 | 1.0 | 0.00 | 0.00 | 0.00 | 96 | 1013.1 |
| 20260508043043 | 44 | 5 | 0.0 | 1.0 | 0.00 | 0.00 | 0.00 | 96 | 1013.2 |
| 20260508042534 | 44 | 5 | 0.0 | 1.0 | 0.00 | 0.00 | 0.00 | 96 | 1013.1 |
| 20260508042033 | 44 | 13 | 0.0 | 1.0 | 0.00 | 0.00 | 0.00 | 96 | 1013.2 |
| 20260508041549 | 44 | 9 | 0.0 | 3.0 | 0.00 | 0.00 | 0.00 | 96 | 1013.2 |
| 20260508041049 | 45 | 11 | 1.0 | 3.0 | 0.00 | 0.00 | 0.00 | 96 | 1013.2 |
| 20260508040559 | 45 | 19 | 1.0 | 3.0 | 0.00 | 0.00 | 0.00 | 96 | 1013.2 |
| 20260508035556 | 45 | 11 | 0.0 | 1.0 | 0.00 | 0.00 | 0.00 | 96 | 1013.3 |
| 20260508035035 | 45 | 360 | 0.0 | 1.0 | 0.00 | 0.00 | 0.00 | 96 | 1013.3 |
| 20260508034543 | 45 | 5 | 0.0 | 1.0 | 0.00 | 0.00 | 0.00 | 96 | 1013.3 |
| 20260508034054 | 45 | 355 | 0.0 | 1.0 | 0.00 | 0.00 | 0.00 | 96 | 1013.4 |
| 20260508033538 | 45 | 355 | 0.0 | 0.0 | 0.00 | 0.00 | 0.00 | 96 | 1013.3 |
| 20260508033035 | 45 | 355 | 0.0 | 0.0 | 0.00 | 0.00 | 0.00 | 96 | 1013.4 |
| 20260508032543 | 44 | 355 | 0.0 | 0.0 | 0.00 | 0.00 | 0.00 | 96 | 1013.4 |
| 20260508032043 | 44 | 355 | 0.0 | 0.0 | 0.00 | 0.00 | 0.00 | 96 | 1013.4 |
| 20260508031532 | 44 | 355 | 0.0 | 0.0 | 0.00 | 0.00 | 0.00 | 96 | 1013.4 |
| 20260508031036 | 44 | 355 | 0.0 | 1.0 | 0.00 | 0.00 | 0.00 | 96 | 1013.3 |
| 20260508030603 | 45 | 355 | 0.0 | 2.0 | 0.00 | 0.00 | 0.00 | 96 | 1013.3 |
| 20260508030041 | 45 | 355 | 0.0 | 2.0 | 0.00 | 0.00 | 0.00 | 96 | 1013.3 |
| 20260508025554 | 45 | 360 | 0.0 | 1.0 | 0.00 | 0.00 | 0.00 | 96 | 1013.2 |
| 20260508025059 | 45 | 360 | 0.0 | 1.0 | 0.00 | 0.00 | 0.00 | 96 | 1013.2 |
| 20260508024546 | 45 | 355 | 0.0 | 1.0 | 0.00 | 0.00 | 0.00 | 96 | 1013.2 |
| 20260508024030 | 45 | 360 | 0.0 | 1.0 | 0.00 | 0.00 | 0.00 | 95 | 1013.2 |
| 20260508023537 | 45 | 355 | 0.0 | 1.0 | 0.00 | 0.00 | 0.00 | 95 | 1013.3 |
| 20260508023025 | 45 | 350 | 0.0 | 2.0 | 0.00 | 0.00 | 0.00 | 95 | 1013.2 |
| 20260508022529 | 45 | 360 | 0.0 | 2.0 | 0.00 | 0.00 | 0.00 | 95 | 1013.2 |
| 20260508022028 | 45 | 13 | 0.0 | 1.0 | 0.00 | 0.00 | 0.00 | 96 | 1013.2 |
| 20260508021537 | 45 | 9 | 0.0 | 1.0 | 0.00 | 0.00 | 0.00 | 96 | 1013.3 |
| 20260508021028 | 45 | 350 | 0.0 | 1.0 | 0.00 | 0.00 | 0.00 | 96 | 1013.3 |
| 20260508020535 | 45 | 342 | 0.0 | 1.0 | 0.00 | 0.00 | 0.00 | 95 | 1013.3 |
| 20260508020028 | 45 | 355 | 0.0 | 1.0 | 0.00 | 0.00 | 0.00 | 95 | 1013.3 |
| 20260508015537 | 45 | 355 | 0.0 | 1.0 | 0.00 | 0.00 | 0.00 | 95 | 1013.3 |
| 20260508015036 | 45 | 355 | 0.0 | 1.0 | 0.00 | 0.00 | 0.00 | 95 | 1013.2 |
| 20260508014546 | 45 | 348 | 0.0 | 1.0 | 0.00 | 0.00 | 0.00 | 95 | 1013.2 |
| 20260508014041 | 45 | 355 | 0.0 | 1.0 | 0.00 | 0.00 | 0.00 | 95 | 1013.2 |
| 20260508013527 | 45 | 355 | 0.0 | 1.0 | 0.00 | 0.00 | 0.00 | 95 | 1013.2 |
| 20260508013043 | 45 | 355 | 0.0 | 1.0 | 0.00 | 0.00 | 0.00 | 95 | 1013.2 |
| 20260508012529 | 45 | 351 | 0.0 | 1.0 | 0.00 | 0.00 | 0.00 | 95 | 1013.3 |
| 20260508012027 | 45 | 360 | 0.0 | 1.0 | 0.00 | 0.00 | 0.00 | 95 | 1013.3 |
| 20260508011532 | 45 | 5 | 0.0 | 1.0 | 0.00 | 0.00 | 0.00 | 94 | 1013.2 |
| 20260508011034 | 45 | 5 | 0.0 | 1.0 | 0.00 | 0.00 | 0.00 | 95 | 1013.2 |
| 20260508010536 | 45 | 10 | 0.0 | 1.0 | 0.00 | 0.00 | 0.00 | 94 | 1013.1 |
| 20260508010028 | 45 | 5 | 0.0 | 1.0 | 0.00 | 0.00 | 0.00 | 94 | 1013.2 |
| 20260508005539 | 45 | 17 | 0.0 | 1.0 | 0.00 | 0.00 | 0.00 | 94 | 1013.1 |
| 20260508005104 | 46 | 355 | 0.0 | 1.0 | 0.00 | 0.00 | 0.00 | 94 | 1013.3 |
| 20260508004529 | 46 | 344 | 0.0 | 1.0 | 0.00 | 0.00 | 0.00 | 94 | 1013.2 |
| 20260508004037 | 46 | 355 | 0.0 | 1.0 | 0.00 | 0.00 | 0.00 | 94 | 1013.2 |
| 20260508003540 | 46 | 50 | 0.0 | 1.0 | 0.00 | 0.00 | 0.00 | 94 | 1013.2 |
| 20260508003040 | 46 | 50 | 0.0 | 1.0 | 0.00 | 0.00 | 0.00 | 94 | 1013.2 |
| 20260508002531 | 46 | 355 | 0.0 | 1.0 | 0.00 | 0.00 | 0.00 | 93 | 1013.2 |
| 20260508002054 | 46 | 344 | 0.0 | 0.0 | 0.00 | 0.00 | 0.00 | 93 | 1013.3 |
| 20260508001604 | 46 | 344 | 0.0 | 0.0 | 0.00 | 0.00 | 0.00 | 93 | 1013.5 |
| 20260508001029 | 46 | 344 | 0.0 | 0.0 | 0.00 | 0.00 | 0.00 | 92 | 1013.5 |
| 20260508000530 | 46 | 344 | 0.0 | 0.0 | 0.00 | 0.00 | 0.00 | 92 | 1013.5 |
| 20260508000046 | 46 | 344 | 0.0 | 0.0 | 0.00 | 0.00 | 0.00 | 92 | 1013.6 |
| 20260507235541 | 46 | 344 | 0.0 | 0.0 | 0.00 | 0.00 | 0.00 | 91 | 1013.7 |
| 20260507235045 | 47 | 344 | 0.0 | 0.0 | 0.00 | 0.00 | 0.00 | 91 | 1013.6 |
| 20260507234528 | 47 | 344 | 0.0 | 0.0 | 0.00 | 0.00 | 0.00 | 91 | 1013.7 |
| 20260507234027 | 47 | 344 | 0.0 | 0.0 | 0.00 | 0.00 | 0.00 | 91 | 1013.8 |
| 20260507233536 | 47 | 344 | 0.0 | 0.0 | 0.00 | 0.00 | 0.00 | 91 | 1013.8 |
| 20260507233036 | 48 | 344 | 0.0 | 1.0 | 0.00 | 0.00 | 0.00 | 91 | 1013.8 |
| 20260507232533 | 48 | 344 | 0.0 | 1.0 | 0.00 | 0.00 | 0.00 | 91 | 1013.9 |
| 20260507232033 | 48 | 348 | 0.0 | 1.0 | 0.00 | 0.00 | 0.00 | 91 | 1013.8 |
| 20260507231528 | 49 | 360 | 0.0 | 1.0 | 0.00 | 0.00 | 0.00 | 91 | 1013.8 |
| 20260507231058 | 49 | 219 | 0.0 | 0.0 | 0.00 | 0.00 | 0.00 | 91 | 1013.8 |
| 20260507230524 | 49 | 219 | 0.0 | 0.0 | 0.00 | 0.00 | 0.00 | 92 | 1013.7 |
| 20260507230040 | 49 | 219 | 0.0 | 0.0 | 0.00 | 0.00 | 0.00 | 91 | 1013.7 |
| 20260507225536 | 49 | 219 | 0.0 | 1.0 | 0.00 | 0.00 | 0.00 | 91 | 1013.6 |
| 20260507225034 | 49 | 219 | 0.0 | 1.0 | 0.00 | 0.00 | 0.00 | 91 | 1013.6 |
| 20260507224545 | 49 | 0.0 | 0.0 | 0.00 | 0.00 | 0.00 | 90 | 1013.6 | |
| 20260507224031 | 49 | 0.0 | 0.0 | 0.00 | 0.00 | 0.00 | 90 | 1013.6 | |
| 20260507223542 | 49 | 0.0 | 0.0 | 0.00 | 0.00 | 0.00 | 90 | 1013.7 | |
| 20260507223100 | 49 | 152 | 0.0 | 0.0 | 0.00 | 0.00 | 0.00 | 90 | 1013.8 |
| 20260507222043 | 50 | 152 | 0.0 | 0.0 | 0.00 | 0.00 | 0.00 | 89 | 1013.8 |
| 20260507221544 | 50 | 152 | 0.0 | 0.0 | 0.00 | 0.00 | 0.00 | 89 | 1013.7 |
| 20260507221045 | 50 | 152 | 0.0 | 0.0 | 0.00 | 0.00 | 0.00 | 89 | 1013.7 |
| 20260507220529 | 50 | 152 | 0.0 | 0.0 | 0.00 | 0.00 | 0.00 | 89 | 1013.7 |
| 20260507220037 | 50 | 152 | 0.0 | 1.0 | 0.00 | 0.00 | 0.00 | 89 | 1013.7 |
| 20260507215545 | 51 | 140 | 0.0 | 2.0 | 0.00 | 0.00 | 0.00 | 88 | 1013.6 |
| 20260507215027 | 51 | 109 | 0.0 | 2.0 | 0.00 | 0.00 | 0.00 | 88 | 1013.6 |
| 20260507214530 | 51 | 83 | 0.0 | 2.0 | 0.00 | 0.00 | 0.00 | 88 | 1013.5 |
| 20260507214028 | 51 | 82 | 1.0 | 2.0 | 0.00 | 0.00 | 0.00 | 88 | 1013.5 |
| 20260507213528 | 51 | 84 | 1.0 | 2.0 | 0.00 | 0.00 | 0.00 | 88 | 1013.5 |
| 20260507213032 | 51 | 80 | 0.0 | 1.0 | 0.00 | 0.00 | 0.00 | 87 | 1013.5 |
| 20260507212537 | 51 | 76 | 0.0 | 0.0 | 0.00 | 0.00 | 0.00 | 87 | 1013.5 |
| 20260507212103 | 51 | 72 | 0.0 | 1.0 | 0.00 | 0.00 | 0.00 | 87 | 1013.6 |
| 20260507211546 | 52 | 57 | 0.0 | 1.0 | 0.00 | 0.00 | 0.00 | 87 | 1013.6 |
| 20260507211036 | 52 | 60 | 0.0 | 1.0 | 0.00 | 0.00 | 0.00 | 87 | 1013.7 |
| 20260507210536 | 52 | 84 | 0.0 | 1.0 | 0.00 | 0.00 | 0.00 | 86 | 1013.7 |
| 20260507210028 | 52 | 76 | 0.0 | 2.0 | 0.00 | 0.00 | 0.00 | 86 | 1013.7 |
| 20260507205536 | 52 | 81 | 0.0 | 2.0 | 0.00 | 0.00 | 0.00 | 84 | 1013.7 |
| 20260507205034 | 52 | 82 | 0.0 | 1.0 | 0.00 | 0.00 | 0.00 | 84 | 1013.7 |
| 20260507204541 | 53 | 68 | 0.0 | 1.0 | 0.00 | 0.00 | 0.00 | 85 | 1013.6 |
| 20260507204038 | 53 | 59 | 0.0 | 1.0 | 0.00 | 0.00 | 0.00 | 85 | 1013.6 |
| 20260507203544 | 53 | 44 | 0.0 | 1.0 | 0.00 | 0.00 | 0.00 | 84 | 1013.6 |
| 20260507203042 | 53 | 94 | 0.0 | 1.0 | 0.00 | 0.00 | 0.00 | 83 | 1013.5 |
| 20260507202528 | 53 | 91 | 0.0 | 1.0 | 0.00 | 0.00 | 0.00 | 83 | 1013.6 |
| 20260507202024 | 53 | 91 | 0.0 | 2.0 | 0.00 | 0.00 | 0.00 | 82 | 1013.5 |
| 20260507201540 | 54 | 78 | 0.0 | 2.0 | 0.00 | 0.00 | 0.00 | 81 | 1013.4 |
| 20260507201033 | 54 | 73 | 0.0 | 2.0 | 0.00 | 0.00 | 0.00 | 81 | 1013.3 |
| 20260507200542 | 54 | 71 | 1.0 | 2.0 | 0.00 | 0.00 | 0.00 | 81 | 1013.3 |
| 20260507200035 | 55 | 73 | 0.0 | 2.0 | 0.00 | 0.00 | 0.00 | 81 | 1013.3 |
| 20260507195546 | 55 | 64 | 0.0 | 3.0 | 0.00 | 0.00 | 0.00 | 81 | 1013.3 |
| 20260507195041 | 55 | 50 | 1.0 | 3.0 | 0.00 | 0.00 | 0.00 | 81 | 1013.2 |
| 20260507194533 | 55 | 52 | 1.0 | 2.0 | 0.00 | 0.00 | 0.00 | 81 | 1013.0 |
| 20260507194034 | 55 | 59 | 1.0 | 2.0 | 0.00 | 0.00 | 0.00 | 80 | 1013.0 |
| 20260507193541 | 56 | 47 | 0.0 | 2.0 | 0.00 | 0.00 | 0.00 | 80 | 1012.9 |
| 20260507193041 | 56 | 54 | 0.0 | 2.0 | 0.00 | 0.00 | 0.00 | 79 | 1012.9 |
| 20260507192529 | 56 | 57 | 0.0 | 2.0 | 0.00 | 0.00 | 0.00 | 78 | 1012.9 |
| 20260507192041 | 56 | 55 | 0.0 | 2.0 | 0.00 | 0.00 | 0.00 | 77 | 1012.8 |
| 20260507191551 | 57 | 62 | 0.0 | 4.0 | 0.00 | 0.00 | 0.00 | 76 | 1012.8 |
| 20260507191029 | 57 | 50 | 1.0 | 4.0 | 0.00 | 0.00 | 0.00 | 76 | 1012.8 |
| 20260507190530 | 58 | 40 | 1.0 | 4.0 | 0.00 | 0.00 | 0.00 | 75 | 1012.7 |
| 20260507190043 | 58 | 55 | 1.0 | 3.0 | 0.00 | 0.00 | 0.00 | 75 | 1012.7 |
| 20260507185611 | 58 | 49 | 1.0 | 3.0 | 0.00 | 0.00 | 0.00 | 73 | 1012.7 |
| 20260507185042 | 59 | 61 | 1.0 | 4.0 | 0.00 | 0.00 | 0.00 | 71 | 1012.6 |
| 20260507184528 | 59 | 59 | 1.0 | 2.0 | 0.00 | 0.00 | 0.00 | 70 | 1012.6 |
| 20260507184033 | 59 | 48 | 1.0 | 3.0 | 0.00 | 0.00 | 0.00 | 69 | 1012.6 |
| 20260507183602 | 60 | 75 | 1.0 | 4.0 | 0.00 | 0.00 | 0.00 | 69 | 1012.5 |
| 20260507183043 | 60 | 85 | 1.0 | 4.0 | 0.00 | 0.00 | 0.00 | 67 | 1012.4 |
| 20260507182535 | 60 | 73 | 1.0 | 4.0 | 0.00 | 0.00 | 0.00 | 67 | 1012.4 |
| 20260507182039 | 60 | 55 | 1.0 | 3.0 | 0.00 | 0.00 | 0.00 | 68 | 1012.4 |
| 20260507181529 | 60 | 73 | 1.0 | 6.0 | 0.00 | 0.00 | 0.00 | 67 | 1012.4 |
| 20260507181028 | 61 | 62 | 1.0 | 6.0 | 0.00 | 0.00 | 0.00 | 67 | 1012.4 |
| 20260507180042 | 61 | 43 | 1.0 | 6.0 | 0.00 | 0.00 | 0.00 | 66 | 1012.3 |
| 20260507175553 | 61 | 69 | 3.0 | 6.0 | 0.00 | 0.00 | 0.00 | 64 | 1012.3 |
| 20260507175032 | 62 | 47 | 3.0 | 6.0 | 0.00 | 0.00 | 0.00 | 64 | 1012.3 |
| 20260507174537 | 62 | 63 | 3.0 | 6.0 | 0.00 | 0.00 | 0.00 | 64 | 1012.4 |
| 20260507174052 | 62 | 66 | 2.0 | 4.0 | 0.00 | 0.00 | 0.00 | 62 | 1012.4 |
| 20260507173534 | 62 | 46 | 1.0 | 4.0 | 0.00 | 0.00 | 0.00 | 62 | 1012.3 |
| 20260507173058 | 62 | 41 | 3.0 | 5.0 | 0.00 | 0.00 | 0.00 | 60 | 1012.3 |
| 20260507172538 | 62 | 32 | 2.0 | 7.0 | 0.00 | 0.00 | 0.00 | 60 | 1012.3 |
| 20260507172112 | 62 | 51 | 3.0 | 7.0 | 0.00 | 0.00 | 0.00 | 60 | 1012.3 |
| 20260507171614 | 63 | 75 | 1.0 | 6.0 | 0.00 | 0.00 | 0.00 | 60 | 1012.3 |
| 20260507171116 | 63 | 59 | 3.0 | 9.0 | 0.00 | 0.00 | 0.00 | 60 | 1012.3 |
| 20260507170535 | 63 | 83 | 2.0 | 9.0 | 0.00 | 0.00 | 0.00 | 60 | 1012.4 |
| 20260507170031 | 64 | 51 | 1.0 | 5.0 | 0.00 | 0.00 | 0.00 | 60 | 1012.3 |
| 20260507165550 | 64 | 32 | 2.0 | 6.0 | 0.00 | 0.00 | 0.00 | 59 | 1012.3 |
| 20260507165032 | 64 | 61 | 2.0 | 5.0 | 0.00 | 0.00 | 0.00 | 61 | 1012.4 |
| 20260507164538 | 64 | 39 | 3.0 | 6.0 | 0.00 | 0.00 | 0.00 | 59 | 1012.4 |
| 20260507164102 | 65 | 18 | 2.0 | 5.0 | 0.00 | 0.00 | 0.00 | 58 | 1012.4 |
| 20260507163533 | 65 | 24 | 1.0 | 6.0 | 0.00 | 0.00 | 0.00 | 57 | 1012.5 |
| 20260507163037 | 65 | 58 | 1.0 | 6.0 | 0.00 | 0.00 | 0.00 | 58 | 1012.5 |
| 20260507162525 | 65 | 47 | 1.0 | 6.0 | 0.00 | 0.00 | 0.00 | 59 | 1012.5 |
| 20260507162054 | 65 | 38 | 3.0 | 6.0 | 0.00 | 0.00 | 0.00 | 59 | 1012.5 |
| 20260507161529 | 65 | 41 | 1.0 | 6.0 | 0.00 | 0.00 | 0.00 | 58 | 1012.5 |
| 20260507161043 | 65 | 30 | 2.0 | 6.0 | 0.00 | 0.00 | 0.00 | 58 | 1012.5 |
| 20260507160545 | 65 | 15 | 3.0 | 8.0 | 0.00 | 0.00 | 0.00 | 57 | 1012.5 |
| 20260507160036 | 64 | 51 | 3.0 | 8.0 | 0.00 | 0.00 | 0.00 | 59 | 1012.5 |
| 20260507155539 | 64 | 5 | 1.0 | 6.0 | 0.00 | 0.00 | 0.00 | 61 | 1012.5 |
| 20260507155037 | 64 | 56 | 3.0 | 6.0 | 0.00 | 0.00 | 0.00 | 61 | 1012.6 |
| 20260507154539 | 63 | 36 | 3.0 | 6.0 | 0.00 | 0.00 | 0.00 | 64 | 1012.6 |
| 20260507154041 | 63 | 30 | 2.0 | 6.0 | 0.00 | 0.00 | 0.00 | 63 | 1012.6 |
| 20260507153546 | 64 | 49 | 1.0 | 6.0 | 0.00 | 0.00 | 0.00 | 62 | 1012.6 |
| 20260507153044 | 64 | 61 | 3.0 | 6.0 | 0.00 | 0.00 | 0.00 | 63 | 1012.6 |
| 20260507152558 | 64 | 10 | 2.0 | 5.0 | 0.00 | 0.00 | 0.00 | 60 | 1012.7 |
| 20260507152041 | 65 | 34 | 3.0 | 7.0 | 0.00 | 0.00 | 0.00 | 60 | 1012.7 |
| 20260507151541 | 65 | 23 | 4.0 | 9.0 | 0.00 | 0.00 | 0.00 | 59 | 1012.8 |
| 20260507151043 | 66 | 60 | 4.0 | 9.0 | 0.00 | 0.00 | 0.00 | 60 | 1012.8 |
| 20260507150538 | 66 | 15 | 4.0 | 8.0 | 0.00 | 0.00 | 0.00 | 60 | 1012.8 |
| 20260507150028 | 67 | 348 | 1.0 | 5.0 | 0.00 | 0.00 | 0.00 | 55 | 1012.8 |
| 20260507145540 | 66 | 5 | 1.0 | 5.0 | 0.00 | 0.00 | 0.00 | 57 | 1012.9 |
| 20260507145035 | 66 | 5 | 1.0 | 5.0 | 0.00 | 0.00 | 0.00 | 57 | 1012.9 |
| 20260507144540 | 65 | 61 | 1.0 | 6.0 | 0.00 | 0.00 | 0.00 | 58 | 1013.0 |
| 20260507144036 | 65 | 9 | 1.0 | 5.0 | 0.00 | 0.00 | 0.00 | 59 | 1013.1 |
| 20260507143546 | 64 | 32 | 2.0 | 6.0 | 0.00 | 0.00 | 0.00 | 60 | 1013.0 |
| 20260507143044 | 64 | 40 | 2.0 | 9.0 | 0.00 | 0.00 | 0.00 | 61 | 1013.1 |
| 20260507142535 | 64 | 349 | 3.0 | 9.0 | 0.00 | 0.00 | 0.00 | 59 | 1013.2 |
| 20260507142040 | 65 | 19 | 3.0 | 7.0 | 0.00 | 0.00 | 0.00 | 62 | 1013.2 |
| 20260507141545 | 65 | 39 | 1.0 | 4.0 | 0.00 | 0.00 | 0.00 | 60 | 1013.2 |
| 20260507141035 | 65 | 71 | 0.0 | 4.0 | 0.00 | 0.00 | 0.00 | 58 | 1013.3 |
| 20260507140541 | 66 | 42 | 1.0 | 4.0 | 0.00 | 0.00 | 0.00 | 56 | 1013.3 |
| 20260507140034 | 66 | 49 | 0.0 | 4.0 | 0.00 | 0.00 | 0.00 | 60 | 1013.3 |
| 20260507135534 | 65 | 148 | 1.0 | 4.0 | 0.00 | 0.00 | 0.00 | 60 | 1013.3 |
| 20260507135036 | 65 | 39 | 1.0 | 5.0 | 0.00 | 0.00 | 0.00 | 62 | 1013.4 |
| 20260507134546 | 65 | 42 | 2.0 | 6.0 | 0.00 | 0.00 | 0.00 | 62 | 1013.5 |
| 20260507134036 | 64 | 43 | 2.0 | 6.0 | 0.00 | 0.00 | 0.00 | 62 | 1013.4 |
| 20260507133541 | 64 | 9 | 1.0 | 4.0 | 0.00 | 0.00 | 0.00 | 61 | 1013.5 |
| 20260507133027 | 63 | 22 | 1.0 | 5.0 | 0.00 | 0.00 | 0.00 | 59 | 1013.6 |
| 20260507132534 | 64 | 19 | 1.0 | 5.0 | 0.00 | 0.00 | 0.00 | 60 | 1013.6 |
| 20260507132030 | 64 | 41 | 2.0 | 5.0 | 0.00 | 0.00 | 0.00 | 59 | 1013.6 |
| 20260507131555 | 65 | 26 | 3.0 | 5.0 | 0.00 | 0.00 | 0.00 | 60 | 1013.7 |
| 20260507131038 | 64 | 113 | 3.0 | 5.0 | 0.00 | 0.00 | 0.00 | 64 | 1013.7 |
| 20260507130556 | 64 | 14 | 2.0 | 7.0 | 0.00 | 0.00 | 0.00 | 63 | 1013.7 |
| 20260507130033 | 64 | 40 | 3.0 | 11.0 | 0.00 | 0.00 | 0.00 | 65 | 1013.7 |
| 20260507125544 | 64 | 49 | 3.0 | 11.0 | 0.00 | 0.00 | 0.00 | 67 | 1013.7 |
| 20260507125041 | 64 | 33 | 3.0 | 6.0 | 0.00 | 0.00 | 0.00 | 64 | 1013.6 |
| 20260507124530 | 63 | 46 | 1.0 | 3.0 | 0.00 | 0.00 | 0.00 | 58 | 1013.6 |
| 20260507124026 | 63 | 51 | 2.0 | 4.0 | 0.00 | 0.00 | 0.00 | 62 | 1013.7 |
| 20260507123543 | 62 | 51 | 1.0 | 4.0 | 0.00 | 0.00 | 0.00 | 63 | 1013.7 |
| 20260507123042 | 62 | 47 | 1.0 | 4.0 | 0.00 | 0.00 | 0.00 | 61 | 1013.7 |
| 20260507122533 | 62 | 16 | 1.0 | 4.0 | 0.00 | 0.00 | 0.00 | 63 | 1013.7 |
| 20260507122036 | 62 | 10 | 1.0 | 5.0 | 0.00 | 0.00 | 0.00 | 64 | 1013.8 |
| 20260507121546 | 61 | 14 | 2.0 | 5.0 | 0.00 | 0.00 | 0.00 | 64 | 1013.8 |
| 20260507121058 | 62 | 45 | 2.0 | 8.0 | 0.00 | 0.00 | 0.00 | 65 | 1013.8 |
| 20260507120606 | 62 | 17 | 3.0 | 5.0 | 0.00 | 0.00 | 0.00 | 67 | 1013.8 |
| 20260507120029 | 63 | 42 | 1.0 | 5.0 | 0.00 | 0.00 | 0.00 | 65 | 1013.8 |
| 20260507115557 | 63 | 53 | 3.0 | 6.0 | 0.00 | 0.00 | 0.00 | 65 | 1013.7 |
| 20260507115051 | 63 | 34 | 1.0 | 4.0 | 0.00 | 0.00 | 0.00 | 63 | 1013.7 |
| 20260507114530 | 63 | 335 | 1.0 | 5.0 | 0.00 | 0.00 | 0.00 | 62 | 1013.8 |
| 20260507114038 | 63 | 12 | 1.0 | 5.0 | 0.00 | 0.00 | 0.00 | 65 | 1013.8 |
| 20260507113538 | 62 | 27 | 2.0 | 5.0 | 0.00 | 0.00 | 0.00 | 68 | 1013.8 |
| 20260507113050 | 62 | 9 | 2.0 | 5.0 | 0.00 | 0.00 | 0.00 | 68 | 1013.8 |
| 20260507112557 | 63 | 42 | 3.0 | 5.0 | 0.00 | 0.00 | 0.00 | 67 | 1013.8 |
| 20260507112037 | 63 | 42 | 1.0 | 6.0 | 0.00 | 0.00 | 0.00 | 67 | 1013.9 |
| 20260507111539 | 62 | 117 | 1.0 | 5.0 | 0.00 | 0.00 | 0.00 | 64 | 1013.9 |
| 20260507111046 | 63 | 47 | 1.0 | 5.0 | 0.00 | 0.00 | 0.00 | 65 | 1014.0 |
| 20260507110553 | 62 | 36 | 1.0 | 4.0 | 0.00 | 0.00 | 0.00 | 70 | 1014.0 |
| 20260507110030 | 61 | 83 | 2.0 | 4.0 | 0.00 | 0.00 | 0.00 | 70 | 1014.1 |
| 20260507105600 | 61 | 76 | 2.0 | 5.0 | 0.00 | 0.00 | 0.00 | 72 | 1014.0 |
| 20260507105046 | 61 | 9 | 1.0 | 5.0 | 0.00 | 0.00 | 0.00 | 71 | 1014.0 |
| 20260507104536 | 61 | 51 | 3.0 | 7.0 | 0.00 | 0.00 | 0.00 | 71 | 1014.1 |
| 20260507104041 | 61 | 26 | 3.0 | 5.0 | 0.00 | 0.00 | 0.00 | 72 | 1014.1 |
| 20260507103527 | 61 | 360 | 1.0 | 5.0 | 0.00 | 0.00 | 0.00 | 70 | 1014.1 |
| 20260507103043 | 61 | 21 | 1.0 | 4.0 | 0.00 | 0.00 | 0.00 | 69 | 1014.1 |
| 20260507102529 | 61 | 27 | 1.0 | 4.0 | 0.00 | 0.00 | 0.00 | 72 | 1014.2 |
| 20260507102057 | 60 | 68 | 2.0 | 4.0 | 0.00 | 0.00 | 0.00 | 72 | 1014.2 |
| 20260507101543 | 59 | 329 | 1.0 | 4.0 | 0.00 | 0.00 | 0.00 | 71 | 1014.2 |
| 20260507101038 | 59 | 25 | 1.0 | 4.0 | 0.00 | 0.00 | 0.00 | 73 | 1014.2 |
| 20260507100540 | 59 | 82 | 1.0 | 3.0 | 0.00 | 0.00 | 0.00 | 75 | 1014.2 |
| 20260507095527 | 58 | 28 | 0.0 | 4.0 | 0.00 | 0.00 | 0.00 | 73 | 1014.1 |
| 20260507095042 | 59 | 355 | 2.0 | 4.0 | 0.00 | 0.00 | 0.00 | 72 | 1014.1 |